Flag for U.S.A. Weather past 2 weeks in Missoula, Montana, U.S.A.

Now
32 °F

Sunny.


Feels Like: 32 °F
Forecast: 11 / 36 °F
Wind: No wind

Location: Missoula International Airport

Current Time: Mar 1, 2015 at 1:21:22 PM

Latest Report: Mar 1, 2015 at 12:53 PM


Visibility: 10 mi

Pressure: 30.33 "Hg

Humidity: 33%

Dew point: 6 °F

Location of MissoulaLocation

Historic Weather in Missoula — Graph

°F

Missoula temperature yesterday

Maximum temperature yesterday: 34 °F (at 4:53 PM)
Minimum temperature yesterday: 17 °F (at 11:53 PM)
Average temperature yesterday: 25 °F

Past Weeks' High & Low Weather Summary

 TemperatureHumidityPressure
High52 °F (Feb 14, 1:53 PM)100% (Feb 20, 12:53 AM)30.69 "Hg (Feb 20, 12:53 AM)
Low7 °F (Feb 22, 6:53 AM)29% (Feb 16, 3:53 PM)29.90 "Hg (Feb 27, 2:53 PM)
Average30 °F63%30.30 "Hg
* Reported Feb 14 11:53 AM — Mar 1 11:53 AM, Missoula, Weather by CustomWeather, © 2015

Note: Actual official high and low records may vary slightly from our data, if they occured in-between our weather recording intervals... More about our weather records

Advertising

Missoula weather history for previous 24 hours

 ConditionsComfort  
Time TempWeatherWind HumidityBarometerVisibility
11:53 AM
Sun, Mar 1
28 °FSunny.5 mph41%30.38 "Hg10 mi
10:53 AM25 °FSunny.6 mph48%30.41 "Hg10 mi
9:53 AM21 °FSunny.6 mph60%30.44 "Hg10 mi
8:53 AM18 °FSunny.6 mph65%30.45 "Hg10 mi
7:53 AM16 °FSunny.8 mph67%30.44 "Hg10 mi
6:53 AM15 °FClear.7 mph67%30.44 "Hg10 mi
5:53 AM14 °FClear.5 mph73%30.43 "Hg10 mi
4:53 AM15 °FClear.7 mph74%30.42 "Hg10 mi
3:53 AM18 °FClear.5 mph62%30.41 "Hg10 mi
2:53 AM17 °FClear.3 mph68%30.41 "Hg10 mi
1:53 AM18 °FClear.3 mph65%30.40 "Hg10 mi
12:53 AM16 °FClear.3 mph71%30.39 "Hg10 mi
11:53 PM
Sat, Feb 28
17 °FClear.No wind70%30.37 "Hg10 mi
10:53 PM18 °FClear.3 mph68%30.36 "Hg10 mi
9:53 PM22 °FClear.No wind57%30.34 "Hg10 mi
8:53 PM23 °FClear.5 mph57%30.31 "Hg10 mi
7:53 PM27 °FClear.3 mph45%30.27 "Hg10 mi
6:53 PM28 °FClear.9 mph45%30.25 "Hg10 mi
5:53 PM31 °FSunny.8 mph38%30.23 "Hg10 mi
4:53 PM34 °FSunny.9 mph34%30.20 "Hg10 mi
3:53 PM33 °FSunny.6 mph33%30.19 "Hg10 mi
2:53 PM32 °FSunny.No wind33%30.19 "Hg10 mi
1:53 PM31 °FSunny.7 mph33%30.20 "Hg10 mi
Weather by CustomWeather, © 2015

See weather overviewHow to use our weather pages